This is the latest recevied weather packets stored in our database for station/object VE6HFD-WX. If no packets are shown the sender has not sent any weather packets the latest 10 day(s).
| Time | Temp. | Humidity | Pressure | Rain* | Wind** | Luminosity | Snow |
|---|---|---|---|---|---|---|---|
| 1778130577 | 8.33° C | 58% | 1008.3 hPa | 0 mm | - | - | - |
| 1778130247 | 8.33° C | 57% | 1008.3 hPa | 0 mm | - | - | - |
| 1778129917 | 8.89° C | 57% | 1008.3 hPa | 0 mm | - | - | - |
| 1778129617 | 8.89° C | 55% | 1008.2 hPa | 0 mm | - | - | - |
| 1778129287 | 8.89° C | 55% | 1008.2 hPa | 0 mm | - | - | - |
| 1778128987 | 8.89° C | 54% | 1008.1 hPa | 0 mm | - | - | - |
| 1778128657 | 9.44° C | 53% | 1008.1 hPa | 0 mm | - | - | - |
| 1778128327 | 9.44° C | 52% | 1008.1 hPa | 0 mm | - | - | - |
| 1778127997 | 9.44° C | 53% | 1008.1 hPa | 0 mm | - | - | - |
| 1778127697 | 9.44° C | 52% | 1008 hPa | 0 mm | - | - | - |
| 1778127397 | 9.44° C | 52% | 1008 hPa | 0 mm | - | - | - |
| 1778127067 | 9.44° C | 53% | 1008 hPa | 0 mm | - | - | - |
| 1778126767 | 10° C | 52% | 1008 hPa | 0 mm | - | - | - |
| 1778126437 | 10° C | 52% | 1008 hPa | 0 mm | - | - | - |
| 1778126107 | 10.56° C | 51% | 1007.8 hPa | 0 mm | - | - | - |
| 1778125777 | 10.56° C | 47% | 1007.7 hPa | 0 mm | - | - | - |
| 1778125477 | 11.11° C | 48% | 1007.7 hPa | 0 mm | - | - | - |
| 1778125147 | 11.11° C | 47% | 1007.6 hPa | 0 mm | - | - | - |
| 1778124847 | 10.56° C | 49% | 1007.5 hPa | 0 mm | - | - | - |
| 1778124517 | 10.56° C | 48% | 1007.7 hPa | 0 mm | - | - | - |
| 1778124187 | 11.11° C | 46% | 1007.8 hPa | 0 mm | - | - | - |
| 1778123887 | 11.67° C | 46% | 1008 hPa | 0 mm | - | - | - |
| 1778123587 | 11.67° C | 44% | 1008.1 hPa | 0 mm | - | - | - |
| 1778123257 | 11.67° C | 41% | 1008.2 hPa | 0 mm | - | - | - |
| 1778122927 | 11.67° C | 40% | 1008.1 hPa | 0 mm | - | - | - |
* Rain latest hour (hover to see other rain measurements)
** Current wind speed in m/s (hover to see current wind gust speed)